SCP
0 0 0 0 0 0 0 0 0 0 0 0 -0 -0 -0 -0 0 -0 0 -0 -0 -0 -0 -0 0 0 0 0 0 -0 0 0 0 0 -0 -0 -0 0 -0 -0 -0 -0 -0
0 0 0 0 0 0 0 0 0 0 0 -0 -0 -0 -0 -0 0 0 -0 -0 -0 0 -0 -0 -0 -0 0 0 -0 -0 0 0 0 0 0 0 0 0 -0 -0 -0 -0 -0
-0 -0 -0 0 0 0 0 0 0 0 0 0 -0 -0 -0 -0 -0 -0 -0 0 0 -0 -0 -0 -0 -0 -0 0 -0 0 0 0 0 -0 0 0 0 -0 -0 -0 -0 -0 -0
-0 -0 -0 0 0 0 0 0 0 -0 0 0 0 -0 -0 -0 -0 -0 -0 -0 -0 -0 -0 0 -0 -0 0 0 0 0 0 0 0 -0 0 0 0 0 -0 -0 -0 -0 -0
-0 -0 -0 0 0 0 0 0 0 0 0 0 0 -0 -0 -0 -0 -0 -0 -0 -0 0 0 -0 0 -0 0 -0 0 0 0 0 0 -0 0 0 0 -0 -0 -0 -0 -0 -0
-0 -0 0 0 0 0 0 0 0 0 0 0 0 -0 -0 -0 -0 -0 -0 -0 0 0 0 0 0 0 -0 0 0 0 0 0 -0 -0 -0 -0 0 -0 -0 -0 -0 -0 -0
-0 -0 0 0 0 0 0 0 0 0 0 0 -0 -0 -0 -0 -0 -0 0 0 0 0 0 0 0 0 -0 0 0 0 0 -0 -0 -0 0 -0 -0 -0 -0 -0 -0 -0 -0
0 -0 0 0 0 0 0 0 0 0 0 -0 -0 -0 -0 -0 0 0 0 0 0 0 0 0 0 0 0 0 0 -0 -0 -0 0 -0 0 -0 -0 -0 -0 -0 -0 -0 -0
0 -0 -0 -0 0 -0 0 0 0 -0 -0 -0 0 0 0 0 0 0 0 0 0 0 0 0 0 0 0 0 0 -0 -0 -0 0 -0 0 -0 -0 -0 -0 -0 -0 -0 -0
0 -0 -0 -0 -0 -0 -0 -0 -0 -0 -0 0 0 0 0 0 0 0 0 0 0 0 0 0 0 0 0 0 -0 -0 0 0 0 0 -0 0 -0 -0 -0 -0 -0 -0 -0
0 -0 -0 -0 -0 -0 -0 -0 -0 -0 -0 0 0 0 0 0 0 0 0 0 0 0 0 0 0 0 0 0 -0 0 -0 0 -0 -0 -0 -0 -0 -0 -0 -0 -0 -0 -0
0 -0 -0 -0 -0 -0 -0 -0 -0 -0 -0 -0 0 0 -0 0 0 0 0 0 0 0 0 0 0 0 0 0 0 0 0 0 -0 0 0 0 -0 -0 -0 -0 -0 -0 -0
-0 -0 -0 -0 -0 -0 -0 -0 -0 -0 -0 -0 -0 -0 -0 -0 0 0 0 -0 0 0 -0 -0 0 0 0 0 0 0 0 0 0 0 0 -0 -0 -0 -0 -0 -0 -0 -0
0 -0 -0 0 -0 -0 -0 -0 -0 -0 -0 -0 -0 -0 -0 0 0 0 0 -0 0 0 0 0 0 0 -0 0 0 0 0 0 -0 -0 -0 -0 -0 -0 -0 -0 -0 -0 -0
-0 -0 -0 0 0 0 -0 -0 -0 -0 -0 -0 -0 -0 -0 -0 0 0 0 0 0 0 0 0 0 0 0 0 0 0 0 0 0 0 -0 0 -0 -0 -0 -0 -0 -0 -0
0 -0 0 0 0 0 -0 -0 -0 -0 -0 -0 -0 -0 -0 -0 0 0 0 0 0 0 0 0 0 0 0 0 0 0 0 0 0 0 0 -0 0 -0 -0 -0 -0 -0 -0
0 -0 -0 -0 0 0 -0 0 0 0 -0 0 0 0 -0 -0 -0 0 0 0 0 0 0 0 0 0 0 0 0 -0 -0 0 0 0 0 0 -0 -0 -0 -0 -0 -0 -0
0 -0 -0 -0 -0 -0 -0 0 0 0 0 0 0 0 -0 -0 -0 0 0 0 0 0 0 0 0 0 0 0 0 0 -0 -0 0 0 0 0 0 0 -0 -0 -0 -0 -0
-0 -0 -0 -0 -0 -0 0 0 0 0 0 0 0 0 -0 -0 -0 0 0 0 0 0 0 0 0 0 0 0 0 0 -0 -0 -0 0 0 0 0 0 0 0 -0 -0 -0
0 -0 -0 -0 -0 -0 0 0 0 -0 0 -0 0 -0 -0 -0 -0 0 0 0 0 0 0 0 0 0 0 0 0 -0 -0 -0 -0 0 0 0 0 0 0 0 0 -0 0
-0 -0 -0 -0 -0 -0 0 0 0 0 0 0 0 0 -0 -0 -0 0 0 0 0 0 0 0 0 0 0 0 0 -0 0 -0 -0 0 0 0 0 0 0 0 0 0 0
-0 -0 -0 -0 -0 -0 -0 -0 0 -0 -0 -0 -0 0 -0 -0 -0 0 0 0 0 0 0 0 0 0 0 0 0 0 0 0 0 0 0 0 0 0 0 0 0 0 0
-0 -0 -0 -0 -1 -0 -0 0 0 0 -0 -0 0 0 -0 -0 0 0 0 0 0 0 0 0 0 0 0 0 0 0 0 0 0 0 0 0 0 0 0 0 0 0 0
-0 -0 -0 -0 -1 -1 -1 -0 -0 0 0 -0 -0 -0 0 0 0 -0 -0 -0 0 0 0 0 0 0 0 0 0 0 0 0 0 0 0 0 0 0 0 0 0 0 0
-0 -0 -0 -1 -1 -1 -1 -0 -0 0 0 0 0 0 0 0 0 -0 -0 -0 -0 0 0 0 0 0 0 0 0 0 0 0 0 0 0 0 0 0 0 0 0 0 0
-0 -1 -0 -0 -0 -1 -1 -0 -0 -0 0 0 -0 -0 0 0 0 -0 -0 -0 -0 0 0 0 0 0 0 0 0 0 0 0 0 0 0 0 0 0 0 0 0 0 0
Wind_Speed_500mb
56 64 66 61 61 62 62 62 60 59 58 54 49 44 41 37 34 33 30 28 25 28 28 25 23 22 22 23 21 23 27 29 30 24 20 20 20 23 26 22 20 24 23
57 57 53 59 65 66 62 61 59 56 52 48 44 40 39 34 32 31 27 25 26 29 27 25 24 25 23 24 23 27 25 27 31 32 25 21 20 22 21 18 22 23 24
58 54 54 59 64 63 59 57 54 50 46 43 39 39 36 32 31 28 25 25 26 27 25 25 24 24 26 25 25 25 26 22 19 21 30 17 22 18 20 15 19 24 24
60 55 53 56 59 60 56 53 49 45 41 39 38 36 33 31 28 25 24 25 25 25 25 23 24 25 25 24 21 18 23 25 23 21 24 20 17 16 12 20 21 21 25
60 55 52 52 55 56 54 49 46 42 38 36 34 31 30 27 25 24 24 23 23 24 26 24 26 28 26 25 20 17 21 20 20 19 19 21 12 18 20 20 22 27 25
59 55 52 50 53 54 52 46 42 39 35 32 29 28 27 25 24 25 23 23 22 23 24 25 26 30 29 27 21 20 19 14 20 21 18 16 11 13 18 23 19 24 22
57 54 52 51 50 51 49 45 40 36 32 28 26 26 25 24 25 25 26 25 23 22 24 29 30 28 28 27 22 20 16 18 22 8 8 14 7 12 22 23 19 22 19
53 52 50 49 48 48 46 43 40 35 30 28 26 25 23 25 25 31 29 24 22 23 22 27 30 29 27 27 24 17 12 17 14 20 9 8 7 14 19 20 18 22 19
47 51 51 49 47 46 45 43 38 33 29 28 26 23 23 25 25 22 26 27 24 24 21 24 26 27 26 20 15 15 15 10 14 21 12 10 9 10 16 20 18 21 22
46 48 50 48 46 45 44 41 37 32 30 26 22 20 20 20 23 22 25 28 26 25 21 25 26 22 19 18 10 13 19 8 5 17 16 13 11 12 15 18 19 20 20
46 47 49 47 45 44 42 40 35 32 28 24 21 19 18 21 17 15 22 25 24 22 20 22 18 15 13 12 13 20 21 23 14 13 12 12 11 13 15 17 20 19 20
51 51 48 47 46 46 43 38 34 30 25 21 19 17 19 14 13 9 9 16 15 13 17 13 11 7 8 8 10 16 23 20 16 8 8 11 8 13 13 17 19 19 19
44 51 52 50 48 46 42 36 31 27 22 21 18 9 10 14 13 8 10 16 12 6 11 13 14 10 5 9 9 13 10 12 11 14 11 11 7 12 11 12 17 19 20
50 50 51 50 50 47 39 27 25 23 28 28 18 10 11 15 11 4 5 7 4 5 6 8 12 8 10 4 7 11 6 10 12 11 9 10 8 8 7 10 12 18 20
54 47 49 47 48 45 41 28 34 27 27 22 19 12 11 14 10 7 2 1 3 4 9 6 12 4 8 12 13 11 4 6 10 4 8 7 8 6 5 10 13 15 19
52 51 50 47 48 51 41 35 32 26 23 20 20 12 16 21 11 10 11 7 7 6 5 8 5 5 8 3 3 5 3 6 7 11 13 8 5 4 1 8 13 16 16
58 55 54 51 49 44 38 34 29 31 31 24 27 19 19 17 12 12 19 20 16 12 10 4 6 8 7 5 4 7 5 5 6 7 8 7 3 3 4 6 11 17 18
62 62 57 58 55 47 49 48 40 28 27 26 22 21 19 16 14 12 12 17 18 10 11 9 9 13 10 7 7 7 9 5 4 8 5 13 6 3 9 3 3 4 11
63 62 60 63 61 53 55 51 47 48 38 30 26 23 24 20 18 15 12 14 20 14 13 17 12 7 7 14 12 8 20 8 4 9 8 9 9 5 12 8 1 4 9
66 61 53 64 66 56 46 54 56 49 50 40 31 27 33 22 22 17 16 11 16 10 14 9 8 8 14 6 15 19 15 8 7 14 18 13 10 6 13 16 9 6 7
73 68 63 67 69 58 53 47 49 61 58 51 44 37 30 32 27 19 24 19 19 10 4 15 11 13 15 8 8 21 15 9 11 9 17 8 9 7 10 7 6 7 6
80 73 66 65 66 61 56 53 46 33 49 48 37 34 35 36 28 23 20 16 25 19 15 18 12 9 19 14 7 19 18 19 15 17 12 6 8 4 3 3 7 10 14
87 84 77 70 71 67 60 51 50 37 36 42 44 40 40 38 28 25 22 20 29 30 25 20 14 17 21 17 15 17 14 15 24 19 9 5 4 3 7 11 15 9 2
98 91 83 79 77 75 65 58 61 55 46 50 47 37 36 32 34 29 29 28 30 31 29 19 16 22 24 20 17 14 13 21 18 20 21 17 10 6 2 5 7 16 11
104 97 90 85 81 79 71 69 66 61 46 50 40 32 38 37 40 33 25 35 30 29 27 22 15 22 28 24 18 17 11 16 16 19 20 26 18 17 11 11 11 4 12
109 103 98 92 88 83 77 70 70 68 56 57 51 39 41 35 43 40 30 29 29 31 32 23 19 18 28 24 22 23 17 17 14 15 12 12 16 23 25 19 17 14 9
Wind_Direction_500mb
129 131 132 136 138 134 129 125 123 125 126 127 127 124 121 116 114 110 102 94 89 80 79 80 84 86 94 98 102 99 104 93 93 91 95 109 124 132 133 121 109 115 110
135 135 134 136 136 137 133 133 128 126 127 126 122 121 114 112 106 98 93 89 79 74 73 75 77 85 87 99 106 96 103 109 99 79 67 115 121 124 120 107 117 115 116
139 138 134 138 141 143 139 136 133 130 127 123 121 114 111 109 101 95 94 86 75 70 70 70 74 82 85 100 114 107 95 86 94 90 62 89 116 115 125 116 120 125 124
143 144 139 143 145 146 145 139 137 131 128 124 116 113 115 107 99 94 90 79 69 64 64 68 74 78 85 97 117 108 88 74 78 78 59 54 120 112 124 121 117 122 123
148 146 144 146 148 150 148 145 139 135 130 124 115 116 111 105 95 87 82 72 64 62 64 67 72 74 82 95 111 110 84 78 83 84 55 50 109 124 126 126 121 121 116
146 149 149 150 150 153 154 151 145 140 136 127 119 117 110 101 87 76 75 66 60 62 67 71 73 73 79 93 114 124 90 91 86 75 64 42 124 139 131 129 132 131 126
149 152 151 154 154 156 157 157 151 147 142 135 127 117 107 95 79 76 69 63 61 61 68 74 82 84 85 90 106 118 111 96 81 96 77 34 131 149 135 145 132 134 133
154 156 155 156 159 160 160 159 156 152 147 139 128 117 106 90 85 82 73 67 65 63 69 79 90 94 96 95 111 132 107 110 108 113 126 58 122 155 153 151 136 136 142
161 163 161 162 163 164 166 164 160 155 151 142 130 123 108 95 89 89 78 73 78 74 84 82 95 101 101 98 89 84 82 106 119 99 118 110 131 164 164 161 148 145 150
166 166 165 165 166 166 167 166 164 160 153 142 139 129 113 110 89 89 79 74 77 73 92 103 100 98 93 83 66 48 47 20 348 155 113 129 143 171 177 170 158 152 159
173 173 171 170 170 171 170 169 167 162 155 150 149 141 119 116 96 88 85 75 80 81 88 85 93 85 69 65 44 36 42 28 135 127 111 97 140 181 185 176 171 163 163
175 179 179 177 175 174 173 171 166 164 159 157 155 152 143 137 103 96 81 64 97 82 60 80 88 125 77 38 25 34 39 62 81 105 137 111 146 186 181 181 179 174 170
175 180 183 182 180 176 174 169 169 170 172 165 165 192 157 133 102 96 63 79 77 84 48 57 81 53 69 45 17 28 21 42 67 107 114 112 135 174 179 185 191 187 181
175 179 182 183 184 181 173 170 171 173 162 153 146 119 157 157 149 162 80 40 62 42 56 42 37 58 33 59 359 355 43 48 63 67 96 62 92 150 183 194 201 199 194
178 177 177 178 185 180 167 164 170 164 168 166 166 151 121 151 186 225 327 358 335 12 325 331 354 343 93 95 101 51 57 52 43 346 355 335 60 70 168 199 208 209 205
186 184 178 178 177 172 174 168 178 190 202 201 198 183 172 181 222 246 241 246 260 264 298 300 8 80 125 128 219 147 211 287 310 346 338 295 259 21 77 205 217 219 210
192 191 189 182 182 181 180 185 196 204 212 203 189 182 194 222 259 276 249 244 279 255 289 271 323 191 208 221 215 207 178 236 248 292 327 257 223 248 7 206 218 221 223
195 197 196 194 194 190 187 198 199 193 192 196 202 195 205 238 263 271 268 254 229 242 254 272 308 228 217 185 259 229 161 110 263 253 279 115 162 132 209 52 103 231 233
196 194 200 203 203 200 203 210 207 210 203 210 224 232 230 236 256 253 280 241 226 252 245 291 283 198 297 276 269 181 192 214 281 162 161 194 205 199 192 164 339 297 260
197 199 204 209 209 205 208 218 218 216 218 217 219 238 236 244 259 246 275 245 234 253 271 245 211 243 322 166 161 169 174 161 142 138 164 152 154 139 184 183 199 274 272
199 205 207 206 204 202 207 211 214 224 221 214 220 226 229 246 251 272 264 267 240 254 244 213 205 283 181 149 138 178 176 172 162 149 154 204 197 185 169 181 280 234 289
206 208 210 212 206 206 216 219 218 221 214 218 221 230 228 236 248 261 261 254 224 217 229 226 253 242 178 158 180 179 165 156 162 166 171 224 230 177 287 290 341 294 249
208 210 213 216 215 217 219 220 219 216 215 220 227 231 228 239 232 248 241 244 218 213 226 239 263 196 182 171 139 176 168 178 175 179 185 117 227 5 318 328 331 7 39
213 214 215 217 218 221 224 218 216 217 218 205 212 216 224 226 229 237 246 235 219 227 231 240 259 208 190 197 173 152 171 182 182 182 196 193 218 228 331 284 40 44 51
214 215 217 217 217 220 220 222 221 225 230 219 216 214 214 226 230 232 241 223 234 225 231 245 229 210 212 204 205 180 180 182 179 192 207 207 227 223 240 257 258 11 28
215 215 216 216 216 218 219 224 228 231 230 223 211 214 216 222 229 235 229 235 228 227 233 228 219 223 214 214 212 204 194 188 194 183 176 195 242 246 241 250 259 280 312
Wind_Speed_850mb
56 64 66 61 61 62 62 62 60 59 58 54 49 44 41 37 34 33 30 28 25 28 28 25 23 22 22 23 21 23 27 29 30 24 20 20 20 23 26 22 20 24 23
57 57 53 59 65 66 62 61 59 56 52 48 44 40 39 34 32 31 27 25 26 29 27 25 24 25 23 24 23 27 25 27 31 32 25 21 20 22 21 18 22 23 24
58 54 54 59 64 63 59 57 54 50 46 43 39 39 36 32 31 28 25 25 26 27 25 25 24 24 26 25 25 25 26 22 19 21 30 17 22 18 20 15 19 24 24
60 55 53 56 59 60 56 53 49 45 41 39 38 36 33 31 28 25 24 25 25 25 25 23 24 25 25 24 21 18 23 25 23 21 24 20 17 16 12 20 21 21 25
60 55 52 52 55 56 54 49 46 42 38 36 34 31 30 27 25 24 24 23 23 24 26 24 26 28 26 25 20 17 21 20 20 19 19 21 12 18 20 20 22 27 25
59 55 52 50 53 54 52 46 42 39 35 32 29 28 27 25 24 25 23 23 22 23 24 25 26 30 29 27 21 20 19 14 20 21 18 16 11 13 18 23 19 24 22
57 54 52 51 50 51 49 45 40 36 32 28 26 26 25 24 25 25 26 25 23 22 24 29 30 28 28 27 22 20 16 18 22 8 8 14 7 12 22 23 19 22 19
53 52 50 49 48 48 46 43 40 35 30 28 26 25 23 25 25 31 29 24 22 23 22 27 30 29 27 27 24 17 12 17 14 20 9 8 7 14 19 20 18 22 19
47 51 51 49 47 46 45 43 38 33 29 28 26 23 23 25 25 22 26 27 24 24 21 24 26 27 26 20 15 15 15 10 14 21 12 10 9 10 16 20 18 21 22
46 48 50 48 46 45 44 41 37 32 30 26 22 20 20 20 23 22 25 28 26 25 21 25 26 22 19 18 10 13 19 8 5 17 16 13 11 12 15 18 19 20 20
46 47 49 47 45 44 42 40 35 32 28 24 21 19 18 21 17 15 22 25 24 22 20 22 18 15 13 12 13 20 21 23 14 13 12 12 11 13 15 17 20 19 20
51 51 48 47 46 46 43 38 34 30 25 21 19 17 19 14 13 9 9 16 15 13 17 13 11 7 8 8 10 16 23 20 16 8 8 11 8 13 13 17 19 19 19
44 51 52 50 48 46 42 36 31 27 22 21 18 9 10 14 13 8 10 16 12 6 11 13 14 10 5 9 9 13 10 12 11 14 11 11 7 12 11 12 17 19 20
50 50 51 50 50 47 39 27 25 23 28 28 18 10 11 15 11 4 5 7 4 5 6 8 12 8 10 4 7 11 6 10 12 11 9 10 8 8 7 10 12 18 20
54 47 49 47 48 45 41 28 34 27 27 22 19 12 11 14 10 7 2 1 3 4 9 6 12 4 8 12 13 11 4 6 10 4 8 7 8 6 5 10 13 15 19
52 51 50 47 48 51 41 35 32 26 23 20 20 12 16 21 11 10 11 7 7 6 5 8 5 5 8 3 3 5 3 6 7 11 13 8 5 4 1 8 13 16 16
58 55 54 51 49 44 38 34 29 31 31 24 27 19 19 17 12 12 19 20 16 12 10 4 6 8 7 5 4 7 5 5 6 7 8 7 3 3 4 6 11 17 18
62 62 57 58 55 47 49 48 40 28 27 26 22 21 19 16 14 12 12 17 18 10 11 9 9 13 10 7 7 7 9 5 4 8 5 13 6 3 9 3 3 4 11
63 62 60 63 61 53 55 51 47 48 38 30 26 23 24 20 18 15 12 14 20 14 13 17 12 7 7 14 12 8 20 8 4 9 8 9 9 5 12 8 1 4 9
66 61 53 64 66 56 46 54 56 49 50 40 31 27 33 22 22 17 16 11 16 10 14 9 8 8 14 6 15 19 15 8 7 14 18 13 10 6 13 16 9 6 7
73 68 63 67 69 58 53 47 49 61 58 51 44 37 30 32 27 19 24 19 19 10 4 15 11 13 15 8 8 21 15 9 11 9 17 8 9 7 10 7 6 7 6
80 73 66 65 66 61 56 53 46 33 49 48 37 34 35 36 28 23 20 16 25 19 15 18 12 9 19 14 7 19 18 19 15 17 12 6 8 4 3 3 7 10 14
87 84 77 70 71 67 60 51 50 37 36 42 44 40 40 38 28 25 22 20 29 30 25 20 14 17 21 17 15 17 14 15 24 19 9 5 4 3 7 11 15 9 2
98 91 83 79 77 75 65 58 61 55 46 50 47 37 36 32 34 29 29 28 30 31 29 19 16 22 24 20 17 14 13 21 18 20 21 17 10 6 2 5 7 16 11
104 97 90 85 81 79 71 69 66 61 46 50 40 32 38 37 40 33 25 35 30 29 27 22 15 22 28 24 18 17 11 16 16 19 20 26 18 17 11 11 11 4 12
109 103 98 92 88 83 77 70 70 68 56 57 51 39 41 35 43 40 30 29 29 31 32 23 19 18 28 24 22 23 17 17 14 15 12 12 16 23 25 19 17 14 9
Wind_Direction_850mb
129 131 132 136 138 134 129 125 123 125 126 127 127 124 121 116 114 110 102 94 89 80 79 80 84 86 94 98 102 99 104 93 93 91 95 109 124 132 133 121 109 115 110
135 135 134 136 136 137 133 133 128 126 127 126 122 121 114 112 106 98 93 89 79 74 73 75 77 85 87 99 106 96 103 109 99 79 67 115 121 124 120 107 117 115 116
139 138 134 138 141 143 139 136 133 130 127 123 121 114 111 109 101 95 94 86 75 70 70 70 74 82 85 100 114 107 95 86 94 90 62 89 116 115 125 116 120 125 124
143 144 139 143 145 146 145 139 137 131 128 124 116 113 115 107 99 94 90 79 69 64 64 68 74 78 85 97 117 108 88 74 78 78 59 54 120 112 124 121 117 122 123
148 146 144 146 148 150 148 145 139 135 130 124 115 116 111 105 95 87 82 72 64 62 64 67 72 74 82 95 111 110 84 78 83 84 55 50 109 124 126 126 121 121 116
146 149 149 150 150 153 154 151 145 140 136 127 119 117 110 101 87 76 75 66 60 62 67 71 73 73 79 93 114 124 90 91 86 75 64 42 124 139 131 129 132 131 126
149 152 151 154 154 156 157 157 151 147 142 135 127 117 107 95 79 76 69 63 61 61 68 74 82 84 85 90 106 118 111 96 81 96 77 34 131 149 135 145 132 134 133
154 156 155 156 159 160 160 159 156 152 147 139 128 117 106 90 85 82 73 67 65 63 69 79 90 94 96 95 111 132 107 110 108 113 126 58 122 155 153 151 136 136 142
161 163 161 162 163 164 166 164 160 155 151 142 130 123 108 95 89 89 78 73 78 74 84 82 95 101 101 98 89 84 82 106 119 99 118 110 131 164 164 161 148 145 150
166 166 165 165 166 166 167 166 164 160 153 142 139 129 113 110 89 89 79 74 77 73 92 103 100 98 93 83 66 48 47 20 348 155 113 129 143 171 177 170 158 152 159
173 173 171 170 170 171 170 169 167 162 155 150 149 141 119 116 96 88 85 75 80 81 88 85 93 85 69 65 44 36 42 28 135 127 111 97 140 181 185 176 171 163 163
175 179 179 177 175 174 173 171 166 164 159 157 155 152 143 137 103 96 81 64 97 82 60 80 88 125 77 38 25 34 39 62 81 105 137 111 146 186 181 181 179 174 170
175 180 183 182 180 176 174 169 169 170 172 165 165 192 157 133 102 96 63 79 77 84 48 57 81 53 69 45 17 28 21 42 67 107 114 112 135 174 179 185 191 187 181
175 179 182 183 184 181 173 170 171 173 162 153 146 119 157 157 149 162 80 40 62 42 56 42 37 58 33 59 359 355 43 48 63 67 96 62 92 150 183 194 201 199 194
178 177 177 178 185 180 167 164 170 164 168 166 166 151 121 151 186 225 327 358 335 12 325 331 354 343 93 95 101 51 57 52 43 346 355 335 60 70 168 199 208 209 205
186 184 178 178 177 172 174 168 178 190 202 201 198 183 172 181 222 246 241 246 260 264 298 300 8 80 125 128 219 147 211 287 310 346 338 295 259 21 77 205 217 219 210
192 191 189 182 182 181 180 185 196 204 212 203 189 182 194 222 259 276 249 244 279 255 289 271 323 191 208 221 215 207 178 236 248 292 327 257 223 248 7 206 218 221 223
195 197 196 194 194 190 187 198 199 193 192 196 202 195 205 238 263 271 268 254 229 242 254 272 308 228 217 185 259 229 161 110 263 253 279 115 162 132 209 52 103 231 233
196 194 200 203 203 200 203 210 207 210 203 210 224 232 230 236 256 253 280 241 226 252 245 291 283 198 297 276 269 181 192 214 281 162 161 194 205 199 192 164 339 297 260
197 199 204 209 209 205 208 218 218 216 218 217 219 238 236 244 259 246 275 245 234 253 271 245 211 243 322 166 161 169 174 161 142 138 164 152 154 139 184 183 199 274 272
199 205 207 206 204 202 207 211 214 224 221 214 220 226 229 246 251 272 264 267 240 254 244 213 205 283 181 149 138 178 176 172 162 149 154 204 197 185 169 181 280 234 289
206 208 210 212 206 206 216 219 218 221 214 218 221 230 228 236 248 261 261 254 224 217 229 226 253 242 178 158 180 179 165 156 162 166 171 224 230 177 287 290 341 294 249
208 210 213 216 215 217 219 220 219 216 215 220 227 231 228 239 232 248 241 244 218 213 226 239 263 196 182 171 139 176 168 178 175 179 185 117 227 5 318 328 331 7 39
213 214 215 217 218 221 224 218 216 217 218 205 212 216 224 226 229 237 246 235 219 227 231 240 259 208 190 197 173 152 171 182 182 182 196 193 218 228 331 284 40 44 51
214 215 217 217 217 220 220 222 221 225 230 219 216 214 214 226 230 232 241 223 234 225 231 245 229 210 212 204 205 180 180 182 179 192 207 207 227 223 240 257 258 11 28
215 215 216 216 216 218 219 224 228 231 230 223 211 214 216 222 229 235 229 235 228 227 233 228 219 223 214 214 212 204 194 188 194 183 176 195 242 246 241 250 259 280 312